Location: Wald
(31.7579°N, 86.6655°W)
Time: 20:45:39
(UTC+00:00)

ATLAS 3B R/B - Pass Details

Date: 14 July 2020
Orbit: 1021 x 1174 km, 63.8° (Epoch: 11 August)

Event Time Altitude Azimuth Distance (km) Brightness Sun altitude
Exits shadow 09:14:11 - 172° (S) 3,320 5.0 -18.1°
Reaches altitude 10° 09:15:47 10° 165° (SSE) 2,824 4.7 -17.8°
Maximum altitude 09:21:12 27° 110° (ESE) 1,839 4.3 -17.0°
Drops below altitude 10° 09:26:35 10° 54° (NE) 2,809 6.3 -16.1°
Sets 09:29:34 0° 43° (NE) 3,766 7.4 -15.6°
